www.pogodaiklimat.ru

Погода и климат >> Архив погоды >> Казахстан >> Аяккум


АРХИВ ПОГОДЫ в Аяккуме

Время (UTC), дата Ветер
(напр.,м/с)
 
Видим.   Явления Облачность Т
(С)
Тd
(С)
f
(%)
Тe
(С)
Тes
(С)
Комфортность P
(гПа)
Po
(гПа)
Тmin
(С)
Tmax
(С)
R
(мм)
R24
(мм)
S
(см)
18 13.09 ЮВ 1 н/о 9/0
[Ac trans]
+18.2 +4.1 39 +19 +19 1023.1 1009.5 +25.7
21 13.09 штиль 0 н/о 9/9 1000 м
[Sc]
+13.8 +5.3 56 +14 +14 1021.8 1008.1
00 14.09 штиль 0 н/о 8/8 1000 м
[Cu med, cong]
+13.6 +7.0 64 +13 +13 1021.0 1007.3
03 14.09 штиль 0 50 км 8/8 600 м
[Cb cap]
+14.0 +4.5 53 +14 +14 1021.0 1007.3
06 14.09 штиль 0 50 км 8/3 600 м
[Cb cap Ac cast Ci fib]
+20.7 +5.1 36 +21 +26 комфорт 1021.0 1007.6 +13.6
09 14.09 В 7 10 км пыльный позёмок 8/8 600 м
[Cb cap Ci fib]
+23.5 +3.6 27 +23 +24 комфорт 1020.2 1006.9
12 14.09 ЮВ 1 50 км {метель} 9/9 600 м
[Cb cap]
+23.1 +7.1 36 +24 +24 комфорт 1019.8 1006.5
15 14.09 В 2 20 км 6/3 600 м
[Cb cap Ac cast Ci fib]
+20.3 +6.1 40 +22 +22 комфорт 1019.7 1006.3 +25.0
18 14.09 штиль 0 н/о ясно +13.3 +6.4 63 +13 +13 1019.7 1006.0 +25.0
21 14.09 штиль 0 н/о ясно +11.0 +3.6 60 +11 +11 1019.5 1005.7
00 15.09 штиль 0 50 км ясно +8.6 -0.9 51 +8 +8 1019.8 1005.8 +8.0
03 15.09 штиль 0 50 км ясно +8.4 +3.8 73 +8 +9 1020.0 1006.0
06 15.09 штиль 0 50 км ясно +22.3 +4.5 31 +22 +33 комфорт 1020.0 1006.6 +8.0
09 15.09 штиль 0 50 км 3/3 1000 м
[Cu med, cong]
+26.4 +4.5 24 +25 +35 комфорт 1018.8 1005.6
12 15.09 штиль 0 50 км 5/0
[Ac und]
+27.0 +4.6 24 +26 +29 жарко 1017.9 1004.7
15 15.09 штиль 0 н/о 1/0
[Ac cuf]
+22.5 +2.9 28 +22 +22 комфорт 1017.8 1004.4 +28.5
18 15.09 штиль 0 н/о ясно +16.0 +2.1 39 +16 +16 1018.5 1004.9 +28.5
21 15.09 ЮЗ 2 н/о 3/0
[Ac inh]
+13.2 +0.9 43 +13 +13 1018.3 1004.6
00 16.09 ЮЗ 1 н/о 6/0
[Ac und]
+11.5 +2.5 54 +12 +12 1018.1 1004.3
03 16.09 ЮЗ 2 50 км 8/0
[Ac cast Ci fib]
+13.2 +0.9 43 +13 +13 1018.0 1004.3
06 16.09 ЮЗ 3 50 км 8/0
[Cs]
+24.4 +0.4 21 +23 +29 комфорт 1017.2 1003.9 +11.2
09 16.09 ЮЗ 5 10 км пыльный позёмок 6/0
[Ac cast Ci fib]
+26.6 +1.7 20 +25 +28 комфорт 1016.1 1003.1
12 16.09 ЮЗ 8 10 км пыльный позёмок 4/0
[Ac lent]
+26.8 +2.9 21 +25 +26 комфорт 1015.3 1002.3
15 16.09 штиль 0 н/о {метель} 3/0
[Ac trans]
+22.4 +7.7 39 +23 +23 комфорт 1015.3 1002.0 +27.6
18 16.09 штиль 0 н/о ясно +15.9 +4.6 47 +16 +16 1015.2 1001.6 +27.6
21 16.09 штиль 0 н/о ясно +13.8 +3.4 49 +14 +14 1015.3 1001.6
00 17.09 штиль 0 н/о ясно +11.3 +4.5 63 +11 +11 1015.6 1001.7
03 17.09 штиль 0 50 км ясно +12.6 +6.1 65 +12 +13 1016.2 1002.5
06 17.09 Ю 4 50 км ясно +25.5 +5.3 27 +25 +30 комфорт 1015.8 1002.7 +11.3
09 17.09 Ю 4 50 км ясно +28.8 +5.5 23 +28 +34 жарко 1015.3 1002.3
12 17.09 Ю 5 50 км 4/0
[Ac cast]
+29.5 +5.8 22 +28 +29 жарко 1012.7 999.8
15 17.09 штиль 0 н/о {ливн. осадки} 8/3 600 м
[Cb cap Ac cast Ci sp]
+23.0 +10.5 45 +25 +25 комфорт 1012.9 999.6 +30.8
18 17.09 Ю 1 н/о 8/8 600 м
[Cb cap]
+22.6 +7.7 38 +24 +24 комфорт 1013.7 1000.5 +30.8
21 17.09 штиль 0 н/о 9/9 1000 м
[Sc]
+19.5 +10.4 56 +20 +20 1012.1 998.8
00 18.09 ЮВ 2 н/о 6/6 1000 м
[Sc]
+19.0 +5.6 41 +20 +20 1010.0 996.6
03 18.09 ЮВ 3 50 км 8/0
[Ac und]
+17.4 +4.8 43 +17 +18 1009.3 995.8
06 18.09 ЮВ 4 50 км 8/0
[Ac und]
+25.0 -1.2 18 +23 +26 комфорт 1007.6 994.5 +17.0
09 18.09 ЮВ 7 10 км пыльный позёмок 9/9 1000 м
[Sc]
+27.3 -3.0 14 +25 +25 комфорт 1006.3 993.3
12 18.09 СЗ 8 10 км пыльный позёмок 3/0
[Ci sp]
+28.3 +2.1 18 +26 +27 жарко 1005.8 992.9
15 18.09 СЗ 7 н/о пыльный позёмок 4/0
[Ac trans]
+25.2 +5.8 29 +25 +25 комфорт 1008.5 995.4 +30.5
18 18.09 СЗ 2 н/о {метель} ясно +19.6 +6.4 42 +21 +21 комфорт 1010.7 997.4 +30.5
21 18.09 штиль 0 н/о ясно +15.6 +7.1 57 +16 +16 1012.5 998.9
00 19.09 штиль 0 н/о ясно +12.7 +5.5 62 +12 +12 1013.6 999.8
03 19.09 штиль 0 50 км ясно +12.4 +7.4 72 +12 +13 1014.4 1000.6
06 19.09 Ю 3 50 км ясно +23.0 +10.7 46 +25 +31 комфорт 1015.0 1001.8 +12.0
09 19.09 З 5 50 км ясно +27.6 +7.0 27 +27 +32 жарко 1014.0 1001.0
12 19.09 З 6 50 км ясно +20.9 +8.0 43 +22 +23 комфорт 1013.6 1000.7
15 19.09 З 3 н/о 3/0
[Ac trans]
+26.0 +9.5 35 +26 +26 жарко 1014.5 1001.4 +30.2
18 19.09 штиль 0 н/о ясно +18.6 +7.1 47 +19 +19 1017.1 1003.6 +30.2
21 19.09 штиль 0 н/о ясно +11.8 +3.2 56 +12 +12 1018.4 1004.6
00 20.09 штиль 0 н/о ясно +8.2 +1.7 64 +8 +8 1018.7 1005.7
03 20.09 штиль 0 50 км ясно +7.2 +0.4 62 +7 +7 1020.8 1006.8
06 20.09 СВ 1 50 км 3/0
[Ac trans]
+18.0 +3.4 38 +19 +26 1020.9 1007.4 +7.0
12 20.09 штиль 0 50 км ясно +24.8 +0.9 21 +24 +27 комфорт 1017.8 1004.6

 

Местоположение метеостанции Аяккум (Актюбинская область, Казахстан): широта 46.72 долгота 59.17 высота над уровнем моря 114 м.

В архиве по умолчанию представлена погода в Аяккуме за последнюю неделю. Архивные данные за месяц целиком и за предыдущие месяцы, начиная с января 2011 года, Вы можете получить, выбрав интересующий диапазон дат из раскрывающегося списка и нажав кнопку "Ввод!".


*Определитесь, кто Вы:
робот инопланетянин человек

Внимание! Время в таблицах - всемирное. Для получения местного времени необходимо прибавить поправку, которая равна 5 ч.

Смотрите также архив погоды в соседних городах и на ближайших метеорологических станциях:

Погода в Шалкаре (Актюбинская область, Казахстан) (130 км)
Погода в Аральске (Кызылординская область, Казахстан) (189 км)
Погода в Мугалжаре (Актюбинская область, Казахстан) (218 км)
Погода в Жагабулаке (Актюбинская область, Казахстан) (237 км)
Погода в Эмбе (Актюбинская область, Казахстан) (246 км)
Погода в Казалинске (Кызылординская область, Казахстан) (250 км)
Погода в Каукее (Кызылординская область, Казахстан) (259 км)
Погода в Иргизе (Актюбинская область, Казахстан) (263 км)
Погода в Саме (Мангистауская область, Казахстан) (277 км)
Погода в Каракалпакии (Каракалпакстан, Узбекистан) (303 км)

Пояснения к столбцам:

Ветер - указаны скорость ветра в м/с - средняя за 10 мин, порывы в срок и между сроками (в фигурных скобках) и направление, откуда дует ветер: С - северный, СВ - северо-восточный, В - восточный, ЮВ - юго-восточный, Ю - южный, ЮЗ - юго-западный, З - западный, СЗ - северо-западный.
Видимость - горизонтальная дальность видимости в метрах или километрах. При видимости от 1 до 10 км при отсутствии осадков обычно наблюдается дымка, при ухудшении видимости до 1 км и менее - туман. В сухую погоду видимость может ухудшаться дымом, пылью или мглою.
Явления - указаны атмосферные явления, наблюдавшиеся в срок или в последний час перед сроком; фигурными скобками обозначены явления, наблюдавшиеся между сроками (за 1-3 часа до срока); квадратными скобками обозначены град или гололедные отложения с указанием их диаметра в мм.
Облачность - указаны через наклонную черту общая и нижняя облачность в баллах и высота нижней границы облаков в метрах; квадратными скобками обозначены формы облаков: Ci - перистые, Cs - перисто-слоистые, Cc - перисто-кучевые, Ac - высококучевые, As - высокослоистые, Sc - слоисто-кучевые, Ns - слоисто-дождевые, Cu - кучевые, Cb - кучево-дождевые. Подробнее классификацию облаков см. в Атласе облаков (PDF).
T - Температура воздуха - температура, измеренная на высоте 2 м над землей.
Td - Температура точки росы - температура, при понижении до которой содержащийся в воздухе водяной пар достигнет насыщения.
f - Относительная влажность воздуха - влажноcть воздуха, измеренная на высоте 2 м над землей.
Te - Эффективная температура - температура, которую ощущает одетый по сезону человек в тени. Характеристика душности погоды. При расчете учитывается влияние влажности воздуха и скорости ветра на теплоощущения человека.
Tes - Эффективная температура на солнце - температура, которую ощущает человек, с поправкой на солнечный нагрев. Характеристика знойности погоды. Зависит от высоты солнца над горизонтом, облачности и скорости ветра. Ночью, в пасмурную погоду, а также при ветре 12 м/с и более поправка равна нулю.
P - Атмосферное давление - приведенное к уровню моря атмосферное давление.
Po - Атмосферное давление - измеренное на уровне метеостанции атмосферное давление.
Tmin - Минимальная температура - минимум температуры воздуха на высоте 2 м над землей.
Tmax - Максимальная температура - максимум температуры воздуха на высоте 2 м над землей.
R - Количество осадков - Количество выпавших осадков за период времени, мм. При наведении курсора мыши на число - период времени, за который выпало указанное количество осадков.
R24 - Количество осадков - Количество выпавших осадков за 24 часа, мм.
S - Снежный покров - Высота снежного покрова, см. При наведении курсора мыши на число - состояние снежного покрова и степень покрытия местности в баллах.